Orbital Elements at Epoch 2459000.5 (2020-May-31.0) TDB
Reference: JPL 4 (heliocentric ecliptic J2000)
Element | Value | Uncertainty (1-sigma) | Units |
e | .04419255750213069 | 8.5296e-08 | |
a | 2.655180431137556 | 5.1525e-08 | au |
q | 2.537841217255978 | 2.2662e-07 | au |
i | 1.112024301679551 | 7.9469e-06 | deg |
node | 112.0395988306325 | 0.00051718 | deg |
peri | 139.0886609621329 | 0.00053198 | deg |
M | 12.49561713339198 | 0.0001293 | deg |
tp | 2458945.647718771944 (2020-Apr-06.14771877) | 0.00056708 | TDB |
period | 1580.299798825539 4.33 | 4.5999e-05 1.259e-07 | d yr |
n | .2278048761808032 | 6.6309e-09 | deg/d |
Q | 2.772519645019135 | 5.3802e-08 | au |
|
| | Orbit Determination Parameters
Additional Information
|